Time,TemperatureF,DewpointF,PressureIn,WindDirection,WindDirectionDegrees,WindSpeedMPH,WindSpeedGustMPH,Humidity,HourlyPrecipIn,Conditions,Clouds,dailyrainin,SoftwareType,DateUTC
2013-02-03 00:04:00,12.0,9.1,29.99,WNW,284,2.0,2.0,88,0.00,,OVC014,0.00,VWS V14.01,2013-02-03 06:04:00,
2013-02-03 00:10:00,12.0,9.1,30.00,WNW,299,3.0,3.0,88,0.00,,OVC014,0.00,VWS V14.01,2013-02-03 06:10:00,
2013-02-03 00:15:00,12.0,9.1,30.00,WNW,288,2.0,5.0,88,0.00,,OVC014,0.00,VWS V14.01,2013-02-03 06:15:00,
2013-02-03 00:20:00,12.0,9.4,30.00,West,276,1.0,3.0,89,0.00,,OVC014,0.00,VWS V14.01,2013-02-03 06:20:00,
2013-02-03 00:25:00,12.0,9.4,30.00,WNW,285,3.0,4.0,89,0.00,,OVC014,0.00,VWS V14.01,2013-02-03 06:25:00,
2013-02-03 00:30:00,11.9,9.3,30.00,WNW,287,3.0,5.0,89,0.00,,OVC014,0.00,VWS V14.01,2013-02-03 06:30:00,
2013-02-03 00:35:00,11.8,8.9,30.00,WNW,293,2.0,4.0,88,0.00,,,0.00,VWS V14.01,2013-02-03 06:35:00,
2013-02-03 00:41:00,11.6,8.7,30.00,WNW,291,5.0,6.0,88,0.00,,,0.00,VWS V14.01,2013-02-03 06:41:00,
2013-02-03 00:46:00,11.5,8.6,30.00,WNW,283,2.0,8.0,88,0.00,,,0.00,VWS V14.01,2013-02-03 06:46:00,
2013-02-03 00:53:00,11.3,8.4,30.01,WNW,283,3.0,6.0,88,0.00,,,0.00,VWS V14.01,2013-02-03 06:53:00,
2013-02-03 00:59:00,11.1,8.5,30.01,WNW,300,4.0,6.0,89,0.00,,,0.00,VWS V14.01,2013-02-03 06:59:00,
2013-02-03 01:05:00,10.9,8.3,30.00,WNW,297,2.0,8.0,89,0.00,,,0.00,VWS V14.01,2013-02-03 07:05:00,
2013-02-03 01:10:00,10.9,8.3,30.00,WNW,288,6.0,10.0,89,0.00,,,0.00,VWS V14.01,2013-02-03 07:10:00,
2013-02-03 01:15:00,10.8,8.2,30.01,WNW,299,5.0,9.0,89,0.00,,,0.00,VWS V14.01,2013-02-03 07:15:00,
2013-02-03 01:20:00,10.8,8.2,30.01,NW,311,3.0,8.0,89,0.00,,,0.00,VWS V14.01,2013-02-03 07:20:00,
2013-02-03 01:26:00,10.8,7.9,30.01,WNW,291,4.0,5.0,88,0.00,,,0.00,VWS V14.01,2013-02-03 07:26:00,
2013-02-03 01:33:00,10.7,7.8,30.01,NW,308,4.0,5.0,88,0.00,,,0.00,VWS V14.01,2013-02-03 07:33:00,
2013-02-03 01:39:00,10.7,7.8,30.01,WNW,297,2.0,4.0,88,0.00,,,0.00,VWS V14.01,2013-02-03 07:39:00,
2013-02-03 01:45:00,10.6,7.8,30.01,WNW,293,4.0,9.0,88,0.00,,,0.00,VWS V14.01,2013-02-03 07:45:00,
2013-02-03 01:50:00,10.5,7.4,30.02,WNW,290,2.0,5.0,87,0.00,,,0.00,VWS V14.01,2013-02-03 07:50:00,
2013-02-03 01:57:00,10.4,7.3,30.02,WNW,297,4.0,4.0,87,0.00,,,0.00,VWS V14.01,2013-02-03 07:57:00,
2013-02-03 02:03:00,10.4,7.3,30.03,WNW,293,3.0,4.0,87,0.00,,,0.00,VWS V14.01,2013-02-03 08:03:00,
2013-02-03 02:09:00,10.3,7.2,30.03,NW,314,3.0,6.0,87,0.00,,,0.00,VWS V14.01,2013-02-03 08:09:00,
2013-02-03 02:15:00,10.3,7.2,30.04,WNW,284,5.0,6.0,87,0.00,,,0.00,VWS V14.01,2013-02-03 08:15:00,
2013-02-03 02:20:00,10.3,7.2,30.04,WNW,287,5.0,8.0,87,0.00,,,0.00,VWS V14.01,2013-02-03 08:20:00,
2013-02-03 02:25:00,10.3,6.9,30.03,WNW,285,3.0,5.0,86,0.00,,,0.00,VWS V14.01,2013-02-03 08:25:00,
2013-02-03 02:30:00,10.3,6.9,30.04,NW,305,2.0,11.0,86,0.00,,,0.00,VWS V14.01,2013-02-03 08:30:00,
2013-02-03 02:35:00,10.4,7.1,30.04,WNW,297,6.0,7.0,86,0.00,,OVC040,0.00,VWS V14.01,2013-02-03 08:35:00,
2013-02-03 02:40:00,10.4,7.1,30.04,WNW,290,6.0,8.0,86,0.00,,OVC040,0.00,VWS V14.01,2013-02-03 08:40:00,
2013-02-03 02:45:00,10.5,7.2,30.04,West,273,3.0,8.0,86,0.00,,OVC040,0.00,VWS V14.01,2013-02-03 08:45:00,
2013-02-03 02:50:00,10.5,7.2,30.04,WNW,284,3.0,9.0,86,0.00,,OVC040,0.00,VWS V14.01,2013-02-03 08:50:00,
2013-02-03 02:55:00,10.6,7.0,30.04,NW,308,3.0,5.0,85,0.00,,OVC040,0.00,VWS V14.01,2013-02-03 08:55:00,
2013-02-03 03:00:00,10.6,7.0,30.04,NW,315,4.0,7.0,85,0.00,,OVC040,0.00,VWS V14.01,2013-02-03 09:00:00,
2013-02-03 03:05:00,10.7,7.1,30.04,NW,310,2.0,6.0,85,0.00,,,0.00,VWS V14.01,2013-02-03 09:05:00,
2013-02-03 03:10:00,10.8,7.2,30.04,WNW,293,4.0,7.0,85,0.00,,,0.00,VWS V14.01,2013-02-03 09:10:00,
2013-02-03 03:15:00,10.8,7.2,30.04,WNW,284,4.0,5.0,85,0.00,,,0.00,VWS V14.01,2013-02-03 09:15:00,
2013-02-03 03:20:00,10.9,7.0,30.04,WNW,287,3.0,8.0,84,0.00,,,0.00,VWS V14.01,2013-02-03 09:20:00,
2013-02-03 03:25:00,10.9,7.0,30.04,West,280,3.0,6.0,84,0.00,,,0.00,VWS V14.01,2013-02-03 09:25:00,
2013-02-03 03:30:00,10.9,7.0,30.04,NNW,334,7.0,8.0,84,0.00,,,0.00,VWS V14.01,2013-02-03 09:30:00,
2013-02-03 03:35:00,10.9,6.8,30.04,WNW,302,3.0,7.0,83,0.00,,OVC050,0.00,VWS V14.01,2013-02-03 09:35:00,
2013-02-03 03:40:00,10.9,6.8,30.04,NNW,328,2.0,5.0,83,0.00,,OVC050,0.00,VWS V14.01,2013-02-03 09:40:00,
2013-02-03 03:45:00,10.9,7.0,30.04,West,275,2.0,6.0,84,0.00,,OVC050,0.00,VWS V14.01,2013-02-03 09:45:00,
2013-02-03 03:50:00,10.8,6.9,30.04,WNW,290,7.0,10.0,84,0.00,,OVC050,0.00,VWS V14.01,2013-02-03 09:50:00,
2013-02-03 03:55:00,10.7,6.8,30.03,WNW,287,4.0,7.0,84,0.00,,OVC050,0.00,VWS V14.01,2013-02-03 09:55:00,
2013-02-03 04:00:00,10.5,6.4,30.03,West,280,1.0,6.0,83,0.00,,OVC050,0.00,VWS V14.01,2013-02-03 10:00:00,
2013-02-03 04:06:00,10.1,6.0,30.04,WNW,300,2.0,6.0,83,0.00,,OVC060,0.00,VWS V14.01,2013-02-03 10:06:00,
2013-02-03 04:12:00,9.7,5.6,30.05,WNW,287,6.0,6.0,83,0.00,,OVC060,0.00,VWS V14.01,2013-02-03 10:12:00,
2013-02-03 04:18:00,9.4,5.3,30.05,WNW,297,3.0,5.0,83,0.00,,OVC060,0.00,VWS V14.01,2013-02-03 10:18:00,
2013-02-03 04:24:00,9.0,4.9,30.06,West,262,2.0,5.0,83,0.00,,OVC060,0.00,VWS V14.01,2013-02-03 10:24:00,
2013-02-03 04:30:00,8.8,4.7,30.06,WNW,285,4.0,8.0,83,0.00,,OVC060,0.00,VWS V14.01,2013-02-03 10:30:00,
2013-02-03 04:35:00,8.8,5.0,30.06,WNW,290,3.0,9.0,84,0.00,,BKN060,0.00,VWS V14.01,2013-02-03 10:35:00,
2013-02-03 04:40:00,8.6,4.8,30.06,WNW,290,3.0,8.0,84,0.00,,BKN060,0.00,VWS V14.01,2013-02-03 10:40:00,
2013-02-03 04:45:00,8.4,4.6,30.07,WNW,290,3.0,6.0,84,0.00,,BKN060,0.00,VWS V14.01,2013-02-03 10:45:00,
2013-02-03 04:52:00,8.2,4.1,30.07,NW,305,3.0,6.0,83,0.00,,BKN060,0.00,VWS V14.01,2013-02-03 10:52:00,
2013-02-03 04:58:00,7.9,3.8,30.07,WNW,288,6.0,8.0,83,0.00,,BKN060,0.00,VWS V14.01,2013-02-03 10:58:00,
2013-02-03 05:04:00,7.7,3.6,30.07,West,259,2.0,7.0,83,0.00,,SCT060,0.00,VWS V14.01,2013-02-03 11:04:00,
2013-02-03 05:10:00,7.5,3.4,30.07,WNW,293,7.0,7.0,83,0.00,,SCT060,0.00,VWS V14.01,2013-02-03 11:10:00,
2013-02-03 05:15:00,7.3,3.2,30.08,WNW,285,2.0,5.0,83,0.00,,SCT060,0.00,VWS V14.01,2013-02-03 11:15:00,
2013-02-03 05:20:00,7.1,3.0,30.07,WNW,283,4.0,4.0,83,0.00,,SCT060,0.00,VWS V14.01,2013-02-03 11:20:00,
2013-02-03 05:25:00,6.8,2.7,30.07,WNW,290,2.0,4.0,83,0.00,,SCT060,0.00,VWS V14.01,2013-02-03 11:25:00,
2013-02-03 05:32:00,6.5,2.5,30.08,NNW,338,5.0,6.0,83,0.00,,SCT013,0.00,VWS V14.01,2013-02-03 11:32:00,
2013-02-03 05:38:00,6.4,2.6,30.07,WNW,297,5.0,5.0,84,0.00,,SCT013,0.00,VWS V14.01,2013-02-03 11:38:00,
2013-02-03 05:44:00,6.2,2.2,30.07,West,276,2.0,3.0,83,0.00,,SCT013,0.00,VWS V14.01,2013-02-03 11:44:00,
2013-02-03 05:50:00,6.0,2.2,30.07,WNW,293,3.0,4.0,84,0.00,,SCT013,0.00,VWS V14.01,2013-02-03 11:50:00,
2013-02-03 05:55:00,5.8,2.0,30.07,West,266,1.0,4.0,84,0.00,,SCT013,0.00,VWS V14.01,2013-02-03 11:55:00,
2013-02-03 06:00:00,5.6,1.8,30.07,West,278,1.0,4.0,84,0.00,,SCT013,0.00,VWS V14.01,2013-02-03 12:00:00,
2013-02-03 06:05:00,5.6,1.8,30.07,West,260,1.0,8.0,84,0.00,,SCT013,0.00,VWS V14.01,2013-02-03 12:05:00,
2013-02-03 06:10:00,5.5,1.7,30.07,WNW,302,2.0,4.0,84,0.00,,SCT013,0.00,VWS V14.01,2013-02-03 12:10:00,
2013-02-03 06:15:00,5.3,1.5,30.06,West,276,1.0,4.0,84,0.00,,SCT013,0.00,VWS V14.01,2013-02-03 12:15:00,
2013-02-03 06:20:00,5.1,1.3,30.06,West,276,4.0,4.0,84,0.00,,SCT013,0.00,VWS V14.01,2013-02-03 12:20:00,
2013-02-03 06:25:00,5.0,1.2,30.07,WNW,285,1.0,5.0,84,0.00,,SCT013,0.00,VWS V14.01,2013-02-03 12:25:00,
2013-02-03 06:30:00,4.8,1.0,30.07,WNW,288,2.0,3.0,84,0.00,,SCT013,0.00,VWS V14.01,2013-02-03 12:30:00,
2013-02-03 06:35:00,4.7,0.9,30.07,WNW,290,2.0,5.0,84,0.00,,CLR,0.00,VWS V14.01,2013-02-03 12:35:00,
2013-02-03 06:40:00,4.5,0.7,30.07,WNW,293,2.0,4.0,84,0.00,,CLR,0.00,VWS V14.01,2013-02-03 12:40:00,
2013-02-03 06:45:00,4.4,0.6,30.07,WNW,297,0.0,4.0,84,0.00,,CLR,0.00,VWS V14.01,2013-02-03 12:45:00,
2013-02-03 06:50:00,4.1,0.3,30.07,West,278,1.0,2.0,84,0.00,,CLR,0.00,VWS V14.01,2013-02-03 12:50:00,
2013-02-03 06:55:00,3.8,0.1,30.07,West,262,1.0,2.0,84,0.00,,CLR,0.00,VWS V14.01,2013-02-03 12:55:00,
2013-02-03 07:01:00,3.7,0.2,30.08,WNW,283,1.0,3.0,85,0.00,,CLR,0.00,VWS V14.01,2013-02-03 13:01:00,
2013-02-03 07:07:00,3.7,0.2,30.08,WNW,288,2.0,2.0,85,0.00,,CLR,0.00,VWS V14.01,2013-02-03 13:07:00,
2013-02-03 07:13:00,3.8,0.6,30.08,WNW,289,3.0,4.0,86,0.00,,CLR,0.00,VWS V14.01,2013-02-03 13:13:00,
2013-02-03 07:19:00,3.8,0.3,30.08,WNW,297,3.0,4.0,85,0.00,,CLR,0.00,VWS V14.01,2013-02-03 13:19:00,
2013-02-03 07:25:00,3.8,0.3,30.08,West,281,3.0,3.0,85,0.00,,CLR,0.00,VWS V14.01,2013-02-03 13:25:00,
2013-02-03 07:30:00,3.8,0.3,30.08,West,273,4.0,4.0,85,0.00,,CLR,0.00,VWS V14.01,2013-02-03 13:30:00,
2013-02-03 07:35:00,3.7,0.2,30.07,WNW,287,3.0,4.0,85,0.00,,CLR,0.00,VWS V14.01,2013-02-03 13:35:00,
2013-02-03 07:41:00,3.6,0.1,30.08,West,277,5.0,5.0,85,0.00,,CLR,0.00,VWS V14.01,2013-02-03 13:41:00,
2013-02-03 07:47:00,3.6,0.1,30.08,WNW,287,3.0,3.0,85,0.00,,CLR,0.00,VWS V14.01,2013-02-03 13:47:00,
2013-02-03 07:53:00,3.9,0.4,30.09,WNW,284,4.0,4.0,85,0.00,,CLR,0.00,VWS V14.01,2013-02-03 13:53:00,
2013-02-03 07:59:00,4.3,0.8,30.09,WNW,287,3.0,4.0,85,0.00,,CLR,0.00,VWS V14.01,2013-02-03 13:59:00,
2013-02-03 08:05:00,4.9,1.1,30.09,West,274,5.0,5.0,84,0.00,,CLR,0.00,VWS V14.01,2013-02-03 14:05:00,
2013-02-03 08:10:00,5.3,1.5,30.09,West,262,4.0,5.0,84,0.00,,CLR,0.00,VWS V14.01,2013-02-03 14:10:00,
2013-02-03 08:15:00,5.3,1.3,30.09,West,281,6.0,6.0,83,0.00,,CLR,0.00,VWS V14.01,2013-02-03 14:15:00,
2013-02-03 08:20:00,5.0,0.7,30.09,WNW,293,0.0,6.0,82,0.00,,CLR,0.00,VWS V14.01,2013-02-03 14:20:00,
2013-02-03 08:25:00,5.1,0.8,30.09,WNW,293,2.0,4.0,82,0.00,,CLR,0.00,VWS V14.01,2013-02-03 14:25:00,
2013-02-03 08:30:00,5.4,1.1,30.09,WNW,283,2.0,6.0,82,0.00,,CLR,0.00,VWS V14.01,2013-02-03 14:30:00,
2013-02-03 08:35:00,5.6,1.3,30.09,West,273,9.0,9.0,82,0.00,,SCT100,0.00,VWS V14.01,2013-02-03 14:35:00,
2013-02-03 08:40:00,5.8,1.5,30.09,WNW,300,2.0,9.0,82,0.00,,SCT100,0.00,VWS V14.01,2013-02-03 14:40:00,
2013-02-03 08:45:00,6.0,1.7,30.09,WNW,300,2.0,3.0,82,0.00,,SCT100,0.00,VWS V14.01,2013-02-03 14:45:00,
2013-02-03 08:50:00,6.2,1.6,30.09,WNW,302,2.0,6.0,81,0.00,,SCT100,0.00,VWS V14.01,2013-02-03 14:50:00,
2013-02-03 08:55:00,6.3,1.7,30.09,NW,322,1.0,7.0,81,0.00,,SCT100,0.00,VWS V14.01,2013-02-03 14:55:00,
2013-02-03 09:00:00,6.4,1.8,30.08,WNW,300,4.0,4.0,81,0.00,,SCT100,0.00,VWS V14.01,2013-02-03 15:00:00,
2013-02-03 09:05:00,6.7,1.9,30.08,NW,305,4.0,4.0,80,0.00,,BKN100,0.00,VWS V14.01,2013-02-03 15:05:00,
2013-02-03 09:10:00,7.3,2.4,30.09,NW,314,7.0,7.0,80,0.00,,BKN100,0.00,VWS V14.01,2013-02-03 15:10:00,
2013-02-03 09:15:00,7.2,1.8,30.09,NW,304,2.0,7.0,78,0.00,,BKN100,0.00,VWS V14.01,2013-02-03 15:15:00,
2013-02-03 09:20:00,7.3,2.2,30.09,West,273,2.0,6.0,79,0.00,,BKN100,0.00,VWS V14.01,2013-02-03 15:20:00,
2013-02-03 09:25:00,7.5,2.4,30.09,West,281,4.0,4.0,79,0.00,,BKN100,0.00,VWS V14.01,2013-02-03 15:25:00,
2013-02-03 09:30:00,7.6,2.2,30.09,NW,305,3.0,7.0,78,0.00,,BKN100,0.00,VWS V14.01,2013-02-03 15:30:00,
2013-02-03 09:35:00,7.6,2.2,30.10,WNW,302,2.0,5.0,78,0.00,,BKN100,0.00,VWS V14.01,2013-02-03 15:35:00,
2013-02-03 09:40:00,7.9,2.8,30.09,NW,308,2.0,6.0,79,0.00,,BKN100,0.00,VWS V14.01,2013-02-03 15:40:00,
2013-02-03 09:45:00,8.3,3.1,30.09,WNW,290,2.0,4.0,79,0.00,,BKN100,0.00,VWS V14.01,2013-02-03 15:45:00,
2013-02-03 09:50:00,8.4,3.0,30.09,WNW,296,1.0,4.0,78,0.00,,BKN100,0.00,VWS V14.01,2013-02-03 15:50:00,
2013-02-03 09:55:00,8.6,3.2,30.09,NW,312,3.0,3.0,78,0.00,,BKN100,0.00,VWS V14.01,2013-02-03 15:55:00,
2013-02-03 10:00:00,8.5,2.8,30.09,NW,322,2.0,4.0,77,0.00,,BKN100,0.00,VWS V14.01,2013-02-03 16:00:00,
2013-02-03 10:05:00,8.4,2.4,30.09,WNW,299,2.0,3.0,76,0.00,,SCT090,0.00,VWS V14.01,2013-02-03 16:05:00,
2013-02-03 10:10:00,8.7,2.7,30.09,West,281,5.0,5.0,76,0.00,,SCT090,0.00,VWS V14.01,2013-02-03 16:10:00,
2013-02-03 10:15:00,9.0,3.0,30.09,West,278,2.0,5.0,76,0.00,,SCT090,0.00,VWS V14.01,2013-02-03 16:15:00,
2013-02-03 10:20:00,9.4,3.4,30.10,West,270,1.0,4.0,76,0.00,,SCT090,0.00,VWS V14.01,2013-02-03 16:20:00,
2013-02-03 10:26:00,10.1,4.1,30.09,WNW,285,3.0,5.0,76,0.00,,SCT090,0.00,VWS V14.01,2013-02-03 16:26:00,
2013-02-03 10:32:00,10.3,3.4,30.10,WNW,284,1.0,5.0,73,0.00,,SCT090,0.00,VWS V14.01,2013-02-03 16:32:00,
2013-02-03 10:38:00,10.6,3.7,30.10,West,273,3.0,6.0,73,0.00,,SCT090,0.00,VWS V14.01,2013-02-03 16:38:00,
2013-02-03 10:44:00,10.8,3.6,30.10,NW,307,3.0,5.0,72,0.00,,SCT090,0.00,VWS V14.01,2013-02-03 16:44:00,
2013-02-03 10:50:00,11.2,4.2,30.10,West,272,3.0,5.0,73,0.00,,SCT090,0.00,VWS V14.01,2013-02-03 16:50:00,
2013-02-03 10:55:00,11.1,4.2,30.11,West,274,5.0,6.0,73,0.00,,SCT090,0.00,VWS V14.01,2013-02-03 16:55:00,
2013-02-03 11:00:00,11.0,4.1,30.11,WNW,291,3.0,5.0,73,0.00,,SCT090,0.00,VWS V14.01,2013-02-03 17:00:00,
2013-02-03 11:05:00,11.2,4.2,30.10,WNW,302,3.0,4.0,73,0.00,,CLR,0.00,VWS V14.01,2013-02-03 17:05:00,
2013-02-03 11:10:00,11.3,4.1,30.11,WNW,283,3.0,6.0,72,0.00,,CLR,0.00,VWS V14.01,2013-02-03 17:10:00,
2013-02-03 11:15:00,11.4,4.4,30.11,West,269,1.0,5.0,73,0.00,,CLR,0.00,VWS V14.01,2013-02-03 17:15:00,
2013-02-03 11:20:00,11.3,4.1,30.10,WNW,288,2.0,8.0,72,0.00,,CLR,0.00,VWS V14.01,2013-02-03 17:20:00,
2013-02-03 11:25:00,11.3,4.3,30.10,WNW,289,3.0,5.0,73,0.00,,CLR,0.00,VWS V14.01,2013-02-03 17:25:00,
2013-02-03 11:30:00,11.3,4.1,30.10,West,276,5.0,5.0,72,0.00,,CLR,0.00,VWS V14.01,2013-02-03 17:30:00,
2013-02-03 11:35:00,11.4,4.4,30.09,WSW,256,3.0,5.0,73,0.00,,OVC080,0.00,VWS V14.01,2013-02-03 17:35:00,
2013-02-03 11:40:00,11.7,4.4,30.09,West,264,3.0,4.0,72,0.00,,OVC080,0.00,VWS V14.01,2013-02-03 17:40:00,
2013-02-03 11:45:00,11.9,4.3,30.09,WNW,300,2.0,4.0,71,0.00,,OVC080,0.00,VWS V14.01,2013-02-03 17:45:00,
2013-02-03 11:50:00,12.0,4.7,30.08,West,274,3.0,7.0,72,0.00,,OVC080,0.00,VWS V14.01,2013-02-03 17:50:00,
2013-02-03 11:55:00,12.4,5.1,30.08,West,274,2.0,6.0,72,0.00,,OVC080,0.00,VWS V14.01,2013-02-03 17:55:00,
2013-02-03 12:00:00,12.5,4.9,30.08,West,262,3.0,5.0,71,0.00,,OVC080,0.00,VWS V14.01,2013-02-03 18:00:00,
2013-02-03 12:05:00,12.8,5.2,30.08,NW,309,3.0,6.0,71,0.00,,OVC070,0.00,VWS V14.01,2013-02-03 18:05:00,
2013-02-03 12:10:00,12.9,5.0,30.08,West,262,5.0,5.0,70,0.00,,OVC070,0.00,VWS V14.01,2013-02-03 18:10:00,
2013-02-03 12:15:00,12.9,5.0,30.08,WNW,294,3.0,5.0,70,0.00,,OVC070,0.00,VWS V14.01,2013-02-03 18:15:00,
2013-02-03 12:20:00,13.1,5.2,30.08,WNW,282,2.0,5.0,70,0.00,,OVC070,0.00,VWS V14.01,2013-02-03 18:20:00,
2013-02-03 12:25:00,13.3,5.4,30.08,West,262,3.0,6.0,70,0.00,,OVC070,0.00,VWS V14.01,2013-02-03 18:25:00,
2013-02-03 12:30:00,13.3,5.1,30.08,West,277,2.0,4.0,69,0.00,,OVC070,0.00,VWS V14.01,2013-02-03 18:30:00,
2013-02-03 12:35:00,13.6,5.7,30.07,WSW,250,5.0,5.0,70,0.00,,SCT090,0.00,VWS V14.01,2013-02-03 18:35:00,
2013-02-03 12:40:00,13.6,5.3,30.07,WNW,290,2.0,5.0,69,0.00,,SCT090,0.00,VWS V14.01,2013-02-03 18:40:00,
2013-02-03 12:45:00,13.6,6.0,30.07,WNW,287,3.0,7.0,71,0.00,,SCT090,0.00,VWS V14.01,2013-02-03 18:45:00,
2013-02-03 12:50:00,13.6,6.0,30.07,WNW,302,2.0,6.0,71,0.00,,SCT090,0.00,VWS V14.01,2013-02-03 18:50:00,
2013-02-03 12:55:00,13.7,6.4,30.07,WNW,299,3.0,6.0,72,0.00,,SCT090,0.00,VWS V14.01,2013-02-03 18:55:00,
2013-02-03 13:01:00,13.7,6.4,30.06,West,277,3.0,5.0,72,0.00,,SCT090,0.00,VWS V14.01,2013-02-03 19:01:00,
2013-02-03 13:07:00,13.3,6.3,30.06,West,270,4.0,6.0,73,0.00,,CLR,0.00,VWS V14.01,2013-02-03 19:07:00,
2013-02-03 13:13:00,13.1,6.4,30.06,WNW,297,3.0,6.0,74,0.00,,CLR,0.00,VWS V14.01,2013-02-03 19:13:00,
2013-02-03 13:19:00,13.0,6.6,30.06,West,269,5.0,6.0,75,0.00,,CLR,0.00,VWS V14.01,2013-02-03 19:19:00,
2013-02-03 13:25:00,12.9,7.1,30.05,West,266,2.0,5.0,77,0.00,,CLR,0.00,VWS V14.01,2013-02-03 19:25:00,
2013-02-03 13:30:00,13.1,7.3,30.05,West,270,4.0,6.0,77,0.00,,CLR,0.00,VWS V14.01,2013-02-03 19:30:00,
2013-02-03 13:35:00,13.1,7.5,30.05,West,280,5.0,5.0,78,0.00,,,0.00,VWS V14.01,2013-02-03 19:35:00,
2013-02-03 13:40:00,13.2,7.6,30.05,WNW,299,2.0,5.0,78,0.00,,,0.00,VWS V14.01,2013-02-03 19:40:00,
2013-02-03 13:47:00,13.3,7.7,30.04,WSW,249,3.0,4.0,78,0.00,,,0.00,VWS V14.01,2013-02-03 19:47:00,
2013-02-03 13:53:00,13.3,8.0,30.04,West,259,5.0,5.0,79,0.00,,,0.00,VWS V14.01,2013-02-03 19:53:00,
2013-02-03 13:59:00,13.2,8.2,30.04,West,261,3.0,4.0,80,0.00,,,0.00,VWS V14.01,2013-02-03 19:59:00,
2013-02-03 14:05:00,13.2,8.2,30.03,West,267,5.0,6.0,80,0.00,,,0.00,VWS V14.01,2013-02-03 20:05:00,
2013-02-03 14:10:00,13.0,8.0,30.03,West,264,4.0,6.0,80,0.00,,,0.00,VWS V14.01,2013-02-03 20:10:00,
2013-02-03 14:15:00,13.0,8.0,30.03,West,267,4.0,5.0,80,0.00,,,0.00,VWS V14.01,2013-02-03 20:15:00,
2013-02-03 14:20:00,13.1,8.4,30.03,West,270,2.0,4.0,81,0.00,,,0.00,VWS V14.01,2013-02-03 20:20:00,
2013-02-03 14:25:00,13.0,8.0,30.03,WSW,252,4.0,6.0,80,0.00,,,0.00,VWS V14.01,2013-02-03 20:25:00,
2013-02-03 14:31:00,13.0,8.3,30.03,West,266,3.0,3.0,81,0.00,,,0.00,VWS V14.01,2013-02-03 20:31:00,
2013-02-03 14:37:00,12.9,8.2,30.02,West,273,1.0,4.0,81,0.00,,,0.00,VWS V14.01,2013-02-03 20:37:00,
2013-02-03 14:43:00,13.1,8.4,30.02,West,267,3.0,4.0,81,0.00,,,0.00,VWS V14.01,2013-02-03 20:43:00,
2013-02-03 14:49:00,13.1,8.4,30.02,WSW,257,4.0,5.0,81,0.00,,,0.00,VWS V14.01,2013-02-03 20:49:00,
2013-02-03 14:55:00,13.2,8.5,30.02,WNW,283,2.0,2.0,81,0.00,,,0.00,VWS V14.01,2013-02-03 20:55:00,
2013-02-03 15:00:00,13.1,8.4,30.02,WSW,256,4.0,4.0,81,0.00,,,0.00,VWS V14.01,2013-02-03 21:00:00,
2013-02-03 15:05:00,13.1,8.4,30.02,West,262,3.0,3.0,81,0.00,,,0.00,VWS V14.01,2013-02-03 21:05:00,
2013-02-03 15:10:00,13.1,8.4,30.02,West,266,2.0,4.0,81,0.00,,,0.00,VWS V14.01,2013-02-03 21:10:00,
2013-02-03 15:15:00,13.0,8.3,30.02,WSW,250,4.0,5.0,81,0.00,,,0.00,VWS V14.01,2013-02-03 21:15:00,
2013-02-03 15:20:00,12.9,7.9,30.01,West,269,3.0,4.0,80,0.00,,,0.00,VWS V14.01,2013-02-03 21:20:00,
2013-02-03 15:25:00,12.9,7.9,30.01,West,261,3.0,4.0,80,0.00,,,0.00,VWS V14.01,2013-02-03 21:25:00,
2013-02-03 15:30:00,12.9,8.2,30.01,West,273,2.0,4.0,81,0.00,,,0.00,VWS V14.01,2013-02-03 21:30:00,
2013-02-03 15:35:00,13.0,8.0,30.01,West,265,2.0,3.0,80,0.00,,,0.00,VWS V14.01,2013-02-03 21:35:00,
2013-02-03 15:41:00,13.1,8.1,30.01,West,278,1.0,2.0,80,0.00,,,0.00,VWS V14.01,2013-02-03 21:41:00,
2013-02-03 15:47:00,13.2,8.2,30.01,West,274,2.0,2.0,80,0.00,,,0.00,VWS V14.01,2013-02-03 21:47:00,
2013-02-03 15:53:00,13.4,8.4,30.01,West,273,1.0,2.0,80,0.00,,,0.00,VWS V14.01,2013-02-03 21:53:00,
2013-02-03 15:59:00,13.6,8.3,30.00,WSW,253,1.0,2.0,79,0.00,,,0.00,VWS V14.01,2013-02-03 21:59:00,
2013-02-03 16:05:00,13.8,8.5,30.00,West,266,1.0,2.0,79,0.00,,OVC046,0.00,VWS V14.01,2013-02-03 22:05:00,
2013-02-03 16:10:00,13.8,8.2,30.00,West,276,2.0,2.0,78,0.00,,OVC046,0.00,VWS V14.01,2013-02-03 22:10:00,
2013-02-03 16:15:00,13.6,8.0,30.00,WSW,245,0.0,2.0,78,0.00,,OVC046,0.00,VWS V14.01,2013-02-03 22:15:00,
2013-02-03 16:20:00,13.5,8.2,30.00,WSW,250,0.0,1.0,79,0.00,,OVC046,0.00,VWS V14.01,2013-02-03 22:20:00,
2013-02-03 16:25:00,13.5,8.2,29.99,West,269,1.0,2.0,79,0.00,,OVC046,0.00,VWS V14.01,2013-02-03 22:25:00,
2013-02-03 16:30:00,13.5,8.2,30.00,West,267,1.0,2.0,79,0.00,,OVC046,0.00,VWS V14.01,2013-02-03 22:30:00,
2013-02-03 16:35:00,13.3,8.0,30.00,West,263,1.0,1.0,79,0.00,,OVC046,0.00,VWS V14.01,2013-02-03 22:35:00,
2013-02-03 16:40:00,13.3,8.0,30.00,West,263,0.0,1.0,79,0.00,,OVC046,0.00,VWS V14.01,2013-02-03 22:40:00,
2013-02-03 16:45:00,13.3,8.0,30.00,West,261,1.0,1.0,79,0.00,,OVC046,0.00,VWS V14.01,2013-02-03 22:45:00,
2013-02-03 16:50:00,13.2,7.9,30.00,West,262,0.0,1.0,79,0.00,,OVC046,0.00,VWS V14.01,2013-02-03 22:50:00,
2013-02-03 16:55:00,13.2,7.9,30.00,WSW,249,0.0,2.0,79,0.00,,OVC046,0.00,VWS V14.01,2013-02-03 22:55:00,
2013-02-03 17:00:00,13.1,7.8,30.00,West,267,0.0,1.0,79,0.00,,OVC046,0.00,VWS V14.01,2013-02-03 23:00:00,
2013-02-03 17:05:00,13.1,7.8,30.00,West,270,0.0,0.0,79,0.00,,OVC044,0.00,VWS V14.01,2013-02-03 23:05:00,
2013-02-03 17:10:00,13.0,8.0,30.00,West,270,0.0,0.0,80,0.00,,OVC044,0.00,VWS V14.01,2013-02-03 23:10:00,
2013-02-03 17:15:00,12.9,7.9,29.99,West,270,0.0,1.0,80,0.00,,OVC044,0.00,VWS V14.01,2013-02-03 23:15:00,
2013-02-03 17:20:00,12.8,8.1,29.99,West,270,0.0,0.0,81,0.00,,OVC044,0.00,VWS V14.01,2013-02-03 23:20:00,
2013-02-03 17:25:00,12.7,8.0,29.99,West,270,0.0,0.0,81,0.00,,OVC044,0.00,VWS V14.01,2013-02-03 23:25:00,
2013-02-03 17:30:00,12.7,8.3,29.99,West,270,0.0,0.0,82,0.00,,OVC044,0.00,VWS V14.01,2013-02-03 23:30:00,
2013-02-03 17:35:00,12.6,8.2,30.00,West,270,0.0,0.0,82,0.00,,,0.00,VWS V14.01,2013-02-03 23:35:00,
2013-02-03 17:40:00,12.4,8.2,30.00,West,270,0.0,0.0,83,0.00,,,0.00,VWS V14.01,2013-02-03 23:40:00,
2013-02-03 17:45:00,12.4,8.2,30.00,West,270,0.0,0.0,83,0.00,,,0.00,VWS V14.01,2013-02-03 23:45:00,
2013-02-03 17:50:00,12.3,8.4,30.00,West,270,0.0,0.0,84,0.00,,,0.00,VWS V14.01,2013-02-03 23:50:00,
2013-02-03 17:55:00,12.3,8.4,30.00,West,266,0.0,0.0,84,0.00,,,0.00,VWS V14.01,2013-02-03 23:55:00,
2013-02-03 18:01:00,12.3,8.4,30.00,West,266,0.0,0.0,84,0.00,,,0.00,VWS V14.01,2013-02-04 00:01:00,
2013-02-03 18:06:00,12.2,8.6,30.01,West,265,0.0,0.0,85,0.00,,,0.00,VWS V14.01,2013-02-04 00:06:00,
2013-02-03 18:12:00,12.2,8.6,30.01,West,265,0.0,0.0,85,0.00,,,0.00,VWS V14.01,2013-02-04 00:12:00,
2013-02-03 18:18:00,12.2,8.8,30.01,West,266,0.0,0.0,86,0.00,,,0.00,VWS V14.01,2013-02-04 00:18:00,
2013-02-03 18:24:00,12.2,8.8,30.01,West,266,0.0,0.0,86,0.00,,,0.00,VWS V14.01,2013-02-04 00:24:00,
2013-02-03 18:30:00,12.2,8.8,30.00,West,265,0.0,0.0,86,0.00,,,0.00,VWS V14.01,2013-02-04 00:30:00,
2013-02-03 18:35:00,12.1,8.7,30.00,West,265,0.0,0.0,86,0.00,,,0.00,VWS V14.01,2013-02-04 00:35:00,
2013-02-03 18:40:00,12.2,9.1,30.00,West,265,0.0,0.0,87,0.00,,,0.00,VWS V14.01,2013-02-04 00:40:00,
2013-02-03 18:45:00,12.1,9.0,29.99,West,266,0.0,0.0,87,0.00,,,0.00,VWS V14.01,2013-02-04 00:45:00,
2013-02-03 18:50:00,12.1,9.0,29.99,West,265,0.0,0.0,87,0.00,,,0.00,VWS V14.01,2013-02-04 00:50:00,
2013-02-03 18:56:00,12.1,9.0,30.00,West,266,0.0,0.0,87,0.00,,,0.00,VWS V14.01,2013-02-04 00:56:00,
2013-02-03 19:02:00,12.1,9.0,29.99,West,266,0.0,0.0,87,0.00,,,0.00,VWS V14.01,2013-02-04 01:02:00,
2013-02-03 19:08:00,12.1,9.0,29.99,West,266,0.0,0.0,87,0.00,,,0.00,VWS V14.01,2013-02-04 01:08:00,
2013-02-03 19:14:00,12.1,9.2,29.99,West,266,0.0,0.0,88,0.00,,,0.00,VWS V14.01,2013-02-04 01:14:00,
2013-02-03 19:20:00,12.1,9.2,29.99,West,266,0.0,0.0,88,0.00,,,0.00,VWS V14.01,2013-02-04 01:20:00,
2013-02-03 19:25:00,12.1,9.2,29.98,East,95,0.0,0.0,88,0.00,,,0.00,VWS V14.01,2013-02-04 01:25:00,
2013-02-03 19:30:00,12.2,9.3,29.98,East,94,0.0,0.0,88,0.00,,,0.00,VWS V14.01,2013-02-04 01:30:00,
2013-02-03 19:35:00,12.1,9.2,29.98,East,94,0.0,0.0,88,0.00,,OVC030,0.00,VWS V14.01,2013-02-04 01:35:00,
2013-02-03 19:40:00,12.1,9.2,29.98,East,85,1.0,2.0,88,0.00,,OVC030,0.00,VWS V14.01,2013-02-04 01:40:00,
2013-02-03 19:45:00,12.1,9.2,29.98,East,84,1.0,1.0,88,0.00,,OVC030,0.00,VWS V14.01,2013-02-04 01:45:00,
2013-02-03 19:50:00,12.1,9.2,29.98,East,89,1.0,2.0,88,0.00,,OVC030,0.00,VWS V14.01,2013-02-04 01:50:00,
2013-02-03 19:55:00,12.1,9.2,29.98,East,91,0.0,2.0,88,0.00,,OVC030,0.00,VWS V14.01,2013-02-04 01:55:00,
2013-02-03 20:00:00,12.2,9.3,29.98,East,89,0.0,1.0,88,0.00,,OVC030,0.00,VWS V14.01,2013-02-04 02:00:00,
2013-02-03 20:05:00,12.2,9.3,29.97,ENE,77,1.0,1.0,88,0.00,,,0.00,VWS V14.01,2013-02-04 02:05:00,
2013-02-03 20:10:00,12.3,9.4,29.97,East,88,1.0,2.0,88,0.00,,,0.00,VWS V14.01,2013-02-04 02:10:00,
2013-02-03 20:15:00,12.3,9.4,29.97,East,85,0.0,2.0,88,0.00,,,0.00,VWS V14.01,2013-02-04 02:15:00,
2013-02-03 20:20:00,12.3,9.4,29.98,East,84,1.0,1.0,88,0.00,,,0.00,VWS V14.01,2013-02-04 02:20:00,
2013-02-03 20:25:00,12.3,9.4,29.98,East,83,0.0,1.0,88,0.00,,,0.00,VWS V14.01,2013-02-04 02:25:00,
2013-02-03 20:31:00,12.3,9.4,29.97,ENE,75,1.0,2.0,88,0.00,,,0.00,VWS V14.01,2013-02-04 02:31:00,
2013-02-03 20:37:00,12.3,9.4,29.97,ENE,78,0.0,0.0,88,0.00,,,0.00,VWS V14.01,2013-02-04 02:37:00,
2013-02-03 20:43:00,12.3,9.7,29.98,East,79,0.0,1.0,89,0.00,,,0.00,VWS V14.01,2013-02-04 02:43:00,
2013-02-03 20:49:00,12.4,9.8,29.98,East,88,0.0,1.0,89,0.00,,,0.00,VWS V14.01,2013-02-04 02:49:00,
2013-02-03 20:55:00,12.3,9.7,29.98,East,79,1.0,2.0,89,0.00,,,0.00,VWS V14.01,2013-02-04 02:55:00,
2013-02-03 21:00:00,12.4,9.8,29.98,East,98,0.0,1.0,89,0.00,,,0.00,VWS V14.01,2013-02-04 03:00:00,
2013-02-03 21:06:00,12.3,9.7,29.98,East,80,0.0,3.0,89,0.00,,,0.00,VWS V14.01,2013-02-04 03:06:00,
2013-02-03 21:11:00,12.3,9.7,29.97,East,79,0.0,4.0,89,0.00,,,0.00,VWS V14.01,2013-02-04 03:11:00,
2013-02-03 21:16:00,12.2,9.6,29.98,NE,56,0.0,1.0,89,0.00,,,0.00,VWS V14.01,2013-02-04 03:16:00,
2013-02-03 21:21:00,12.2,9.6,29.98,ENE,76,0.0,1.0,89,0.00,,,0.00,VWS V14.01,2013-02-04 03:21:00,
2013-02-03 21:26:00,12.2,9.6,29.98,ENE,65,2.0,2.0,89,0.00,,,0.00,VWS V14.01,2013-02-04 03:26:00,
2013-02-03 21:31:00,12.1,9.5,29.98,East,84,0.0,2.0,89,0.00,,,0.00,VWS V14.01,2013-02-04 03:31:00,
2013-02-03 21:36:00,12.2,9.6,29.98,ENE,75,0.0,1.0,89,0.00,,,0.00,VWS V14.01,2013-02-04 03:36:00,
2013-02-03 21:41:00,12.1,9.5,29.98,East,90,3.0,3.0,89,0.00,,,0.00,VWS V14.01,2013-02-04 03:41:00,
2013-02-03 21:46:00,12.1,9.5,29.97,East,89,2.0,5.0,89,0.00,,,0.00,VWS V14.01,2013-02-04 03:46:00,
2013-02-03 21:51:00,12.1,9.5,29.97,ENE,77,2.0,2.0,89,0.00,,,0.00,VWS V14.01,2013-02-04 03:51:00,
2013-02-03 21:57:00,12.2,9.6,29.96,ENE,58,1.0,2.0,89,0.00,,,0.00,VWS V14.01,2013-02-04 03:57:00,
2013-02-03 22:03:00,12.2,9.6,29.97,ENE,75,2.0,2.0,89,0.00,,,0.00,VWS V14.01,2013-02-04 04:03:00,
2013-02-03 22:09:00,12.2,9.6,29.97,ENE,68,0.0,2.0,89,0.00,,,0.00,VWS V14.01,2013-02-04 04:09:00,
2013-02-03 22:15:00,12.3,9.7,29.98,ENE,65,0.0,0.0,89,0.00,,,0.00,VWS V14.01,2013-02-04 04:15:00,
2013-02-03 22:21:00,12.2,9.6,29.97,East,99,0.0,2.0,89,0.00,,,0.00,VWS V14.01,2013-02-04 04:21:00,
2013-02-03 22:26:00,12.2,9.6,29.97,ENE,71,2.0,2.0,89,0.00,,,0.00,VWS V14.01,2013-02-04 04:26:00,
2013-02-03 22:31:00,12.2,9.6,29.97,ENE,77,1.0,2.0,89,0.00,,,0.00,VWS V14.01,2013-02-04 04:31:00,
2013-02-03 22:36:00,12.1,9.5,29.97,East,95,0.0,2.0,89,0.00,,,0.00,VWS V14.01,2013-02-04 04:36:00,
2013-02-03 22:41:00,12.1,9.5,29.97,ENE,77,2.0,3.0,89,0.00,,,0.00,VWS V14.01,2013-02-04 04:41:00,
2013-02-03 22:46:00,12.0,9.4,29.96,ENE,75,1.0,2.0,89,0.00,,,0.00,VWS V14.01,2013-02-04 04:46:00,
2013-02-03 22:51:00,12.0,9.4,29.96,NNE,27,0.0,2.0,89,0.00,,,0.00,VWS V14.01,2013-02-04 04:51:00,
2013-02-03 22:56:00,12.0,9.4,29.96,ENE,70,1.0,2.0,89,0.00,,,0.00,VWS V14.01,2013-02-04 04:56:00,
2013-02-03 23:04:00,12.0,9.4,29.96,ENE,77,1.0,4.0,89,0.00,,,0.00,VWS V14.01,2013-02-04 05:04:00,
2013-02-03 23:06:00,11.9,9.3,29.96,East,81,1.0,4.0,89,0.00,,,0.00,VWS V14.01,2013-02-04 05:06:00,
2013-02-03 23:08:00,11.9,9.3,29.96,ENE,77,2.0,2.0,89,0.00,,,0.00,VWS V14.01,2013-02-04 05:08:00,
2013-02-03 23:12:00,11.9,9.3,29.96,East,94,0.0,2.0,89,0.00,,,0.00,VWS V14.01,2013-02-04 05:12:00,
2013-02-03 23:18:00,11.9,9.3,29.97,ENE,78,1.0,2.0,89,0.00,,,0.00,VWS V14.01,2013-02-04 05:18:00,
2013-02-03 23:24:00,11.9,9.3,29.96,East,79,1.0,4.0,89,0.00,,,0.00,VWS V14.01,2013-02-04 05:24:00,
2013-02-03 23:30:00,11.9,9.3,29.96,East,82,2.0,2.0,89,0.00,,,0.00,VWS V14.01,2013-02-04 05:30:00,
2013-02-03 23:36:00,11.9,9.3,29.96,ENE,72,1.0,3.0,89,0.00,,,0.00,VWS V14.01,2013-02-04 05:36:00,
2013-02-03 23:42:00,11.8,9.2,29.96,ENE,77,1.0,4.0,89,0.00,,,0.00,VWS V14.01,2013-02-04 05:42:00,
2013-02-03 23:48:00,11.9,9.3,29.96,ENE,78,3.0,3.0,89,0.00,,,0.00,VWS V14.01,2013-02-04 05:48:00,
2013-02-03 23:54:00,11.9,9.3,29.96,East,94,1.0,3.0,89,0.00,,,0.00,VWS V14.01,2013-02-04 05:54:00,